owner,sensor,date,latitude,longitude,vertical_datum,sea_water_temperature,qcFlag
Shell,ioos:station:wmo:42873:1,2022-10-01T00:04:00Z,28.1936,-89.1757,11.0,28.2,11111222
Shell,ioos:station:wmo:42873:1,2022-10-01T00:14:00Z,28.1937,-89.1759,11.0,28.2,11111222
Shell,ioos:station:wmo:42873:1,2022-10-01T00:24:00Z,28.1936,-89.1761,11.0,28.2,11111222
Shell,ioos:station:wmo:42873:1,2022-10-01T00:34:00Z,28.1936,-89.1762,11.0,28.2,11111222
Shell,ioos:station:wmo:42873:1,2022-10-01T00:44:00Z,28.1936,-89.1757,11.0,28.2,11111222
Shell,ioos:station:wmo:42873:1,2022-10-01T00:54:00Z,28.1936,-89.1762,11.0,28.2,11111222
Shell,ioos:station:wmo:42873:1,2022-10-01T01:04:00Z,28.1936,-89.1758,11.0,28.2,11111222
Shell,ioos:station:wmo:42873:1,2022-10-01T01:14:00Z,28.1936,-89.1760,11.0,28.2,11111222
Shell,ioos:station:wmo:42873:1,2022-10-01T01:24:00Z,28.1936,-89.1759,11.0,28.2,11111222
Shell,ioos:station:wmo:42873:1,2022-10-01T01:34:00Z,28.1936,-89.1758,11.0,28.2,11111222
Shell,ioos:station:wmo:42873:1,2022-10-01T01:44:00Z,28.1936,-89.1756,11.0,28.2,11111222
Shell,ioos:station:wmo:42873:1,2022-10-01T01:54:00Z,28.1935,-89.1756,11.0,28.2,11111222
Shell,ioos:station:wmo:42873:1,2022-10-01T02:04:00Z,28.1935,-89.1756,11.0,28.2,11111222
Shell,ioos:station:wmo:42873:1,2022-10-01T02:14:00Z,28.1937,-89.1758,11.0,28.2,11111222
Shell,ioos:station:wmo:42873:1,2022-10-01T02:24:00Z,28.1935,-89.1756,11.0,28.2,11111222
Shell,ioos:station:wmo:42873:1,2022-10-01T02:34:00Z,28.1935,-89.1756,11.0,28.2,11111222
Shell,ioos:station:wmo:42873:1,2022-10-01T02:44:00Z,28.1935,-89.1755,11.0,28.2,11111222
Shell,ioos:station:wmo:42873:1,2022-10-01T02:54:00Z,28.1935,-89.1758,11.0,28.2,11111222
Shell,ioos:station:wmo:42873:1,2022-10-01T03:04:00Z,28.1934,-89.1752,11.0,28.2,11111222
Shell,ioos:station:wmo:42873:1,2022-10-01T03:14:00Z,28.1935,-89.1755,11.0,28.2,11111222
Shell,ioos:station:wmo:42873:1,2022-10-01T03:24:00Z,28.1935,-89.1756,11.0,28.2,11111222
Shell,ioos:station:wmo:42873:1,2022-10-01T03:34:00Z,28.1936,-89.1758,11.0,28.2,11111222
Shell,ioos:station:wmo:42873:1,2022-10-01T03:44:00Z,28.1937,-89.1758,11.0,28.2,11111222
Shell,ioos:station:wmo:42873:1,2022-10-01T03:54:00Z,28.1938,-89.1760,11.0,28.2,11111222
Shell,ioos:station:wmo:42873:1,2022-10-01T04:04:00Z,28.1938,-89.1760,11.0,28.1,11111222
Shell,ioos:station:wmo:42873:1,2022-10-01T04:14:00Z,28.1939,-89.1760,11.0,28.1,11111222
Shell,ioos:station:wmo:42873:1,2022-10-01T04:24:00Z,28.1938,-89.1760,11.0,28.1,11111222
Shell,ioos:station:wmo:42873:1,2022-10-01T04:34:00Z,28.1941,-89.1758,11.0,28.1,11111222
Shell,ioos:station:wmo:42873:1,2022-10-01T04:44:00Z,28.1937,-89.1759,11.0,28.1,11111222
Shell,ioos:station:wmo:42873:1,2022-10-01T04:54:00Z,28.1937,-89.1759,11.0,28.1,11111222
Shell,ioos:station:wmo:42873:1,2022-10-01T05:04:00Z,28.1939,-89.1760,11.0,28.1,11111222
Shell,ioos:station:wmo:42873:1,2022-10-01T05:14:00Z,28.1938,-89.1760,11.0,28.1,11111222
Shell,ioos:station:wmo:42873:1,2022-10-01T05:24:00Z,28.1937,-89.1760,11.0,28.1,11111222
Shell,ioos:station:wmo:42873:1,2022-10-01T05:34:00Z,28.1933,-89.1759,11.0,28.1,11111222
Shell,ioos:station:wmo:42873:1,2022-10-01T05:44:00Z,28.1938,-89.1759,11.0,28.1,11111222
Shell,ioos:station:wmo:42873:1,2022-10-01T05:54:00Z,28.1938,-89.1758,11.0,28.1,11111222
Shell,ioos:station:wmo:42873:1,2022-10-01T06:04:00Z,28.1938,-89.1759,11.0,28.1,11111222
Shell,ioos:station:wmo:42873:1,2022-10-01T06:14:00Z,28.1937,-89.1759,11.0,28.2,11111222
Shell,ioos:station:wmo:42873:1,2022-10-01T06:24:00Z,28.1942,-89.1764,11.0,28.2,11111222
Shell,ioos:station:wmo:42873:1,2022-10-01T06:34:00Z,28.1940,-89.1765,11.0,28.2,11111222
Shell,ioos:station:wmo:42873:1,2022-10-01T06:44:00Z,28.1943,-89.1767,11.0,28.2,11111222
Shell,ioos:station:wmo:42873:1,2022-10-01T06:54:00Z,28.1946,-89.1768,11.0,28.2,11111222
Shell,ioos:station:wmo:42873:1,2022-10-01T07:04:00Z,28.1945,-89.1766,11.0,28.1,11111222
Shell,ioos:station:wmo:42873:1,2022-10-01T07:14:00Z,28.1943,-89.1767,11.0,28.2,11111222
Shell,ioos:station:wmo:42873:1,2022-10-01T07:24:00Z,28.1945,-89.1767,11.0,28.2,11111222
Shell,ioos:station:wmo:42873:1,2022-10-01T07:34:00Z,28.1944,-89.1768,11.0,28.2,11111222
Shell,ioos:station:wmo:42873:1,2022-10-01T07:44:00Z,28.1944,-89.1768,11.0,28.2,11111222
Shell,ioos:station:wmo:42873:1,2022-10-01T07:54:00Z,28.1944,-89.1768,11.0,28.2,11111222
Shell,ioos:station:wmo:42873:1,2022-10-01T08:04:00Z,28.1943,-89.1768,11.0,28.1,11111222
Shell,ioos:station:wmo:42873:1,2022-10-01T08:14:00Z,28.1944,-89.1768,11.0,28.1,11111222
Shell,ioos:station:wmo:42873:1,2022-10-01T08:24:00Z,28.1946,-89.1768,11.0,28.1,11111222
Shell,ioos:station:wmo:42873:1,2022-10-01T08:34:00Z,28.1947,-89.1769,11.0,28.1,11111222
Shell,ioos:station:wmo:42873:1,2022-10-01T08:44:00Z,28.1938,-89.1767,11.0,28.1,11111222
Shell,ioos:station:wmo:42873:1,2022-10-01T08:54:00Z,28.1945,-89.1768,11.0,28.1,11111222
Shell,ioos:station:wmo:42873:1,2022-10-01T09:04:00Z,28.1943,-89.1768,11.0,28.1,11111222
Shell,ioos:station:wmo:42873:1,2022-10-01T09:14:00Z,28.1943,-89.1768,11.0,28.1,11111222
Shell,ioos:station:wmo:42873:1,2022-10-01T09:24:00Z,28.1945,-89.1768,11.0,28.1,11111222
Shell,ioos:station:wmo:42873:1,2022-10-01T09:34:00Z,28.1943,-89.1768,11.0,28.1,11111222
Shell,ioos:station:wmo:42873:1,2022-10-01T09:44:00Z,28.1920,-89.1774,11.0,28.1,11111222
Shell,ioos:station:wmo:42873:1,2022-10-01T09:54:00Z,28.1921,-89.1775,11.0,28.1,11111222
Shell,ioos:station:wmo:42873:1,2022-10-01T10:04:00Z,28.1944,-89.1768,11.0,28.1,11111222
Shell,ioos:station:wmo:42873:1,2022-10-01T10:14:00Z,28.1942,-89.1768,11.0,28.1,11111222
Shell,ioos:station:wmo:42873:1,2022-10-01T10:24:00Z,28.1942,-89.1768,11.0,28.1,11111222
Shell,ioos:station:wmo:42873:1,2022-10-01T10:34:00Z,28.1943,-89.1768,11.0,28.1,11111222
Shell,ioos:station:wmo:42873:1,2022-10-01T10:44:00Z,28.1944,-89.1767,11.0,28.1,11111222
Shell,ioos:station:wmo:42873:1,2022-10-01T10:54:00Z,28.1943,-89.1768,11.0,28.1,11111222
Shell,ioos:station:wmo:42873:1,2022-10-01T11:04:00Z,28.1943,-89.1768,11.0,28.1,11111222
Shell,ioos:station:wmo:42873:1,2022-10-01T11:14:00Z,28.1945,-89.1768,11.0,28.1,11111222
Shell,ioos:station:wmo:42873:1,2022-10-01T11:24:00Z,28.1943,-89.1767,11.0,28.1,11111222
Shell,ioos:station:wmo:42873:1,2022-10-01T11:34:00Z,28.1945,-89.1768,11.0,28.1,11111222
Shell,ioos:station:wmo:42873:1,2022-10-01T11:44:00Z,28.1944,-89.1767,11.0,28.1,11111222
Shell,ioos:station:wmo:42873:1,2022-10-01T11:54:00Z,28.1943,-89.1767,11.0,28.1,11111222
Shell,ioos:station:wmo:42873:1,2022-10-01T12:04:00Z,28.1944,-89.1767,11.0,28.1,11111222
Shell,ioos:station:wmo:42873:1,2022-10-01T12:14:00Z,28.1938,-89.1768,11.0,28.2,11111222
Shell,ioos:station:wmo:42873:1,2022-10-01T12:24:00Z,28.1943,-89.1768,11.0,28.2,11111222
Shell,ioos:station:wmo:42873:1,2022-10-01T12:34:00Z,28.1947,-89.1768,11.0,28.2,11111222
Shell,ioos:station:wmo:42873:1,2022-10-01T12:44:00Z,28.1939,-89.1768,11.0,28.2,11111222
Shell,ioos:station:wmo:42873:1,2022-10-01T12:54:00Z,28.1944,-89.1768,11.0,28.2,11111222
Shell,ioos:station:wmo:42873:1,2022-10-01T13:04:00Z,28.1944,-89.1768,11.0,28.2,11111222
Shell,ioos:station:wmo:42873:1,2022-10-01T13:14:00Z,28.1943,-89.1768,11.0,28.2,11111222
Shell,ioos:station:wmo:42873:1,2022-10-01T13:24:00Z,28.1943,-89.1768,11.0,28.2,11111222
Shell,ioos:station:wmo:42873:1,2022-10-01T13:34:00Z,28.1944,-89.1768,11.0,28.2,11111222
Shell,ioos:station:wmo:42873:1,2022-10-01T13:44:00Z,28.1945,-89.1768,11.0,28.2,11111222
Shell,ioos:station:wmo:42873:1,2022-10-01T13:54:00Z,28.1941,-89.1767,11.0,28.2,11111222
Shell,ioos:station:wmo:42873:1,2022-10-01T14:04:00Z,28.1944,-89.1768,11.0,28.2,11111222
Shell,ioos:station:wmo:42873:1,2022-10-01T14:14:00Z,28.1944,-89.1769,11.0,28.2,11111222
Shell,ioos:station:wmo:42873:1,2022-10-01T14:24:00Z,28.1943,-89.1768,11.0,28.2,11111222
Shell,ioos:station:wmo:42873:1,2022-10-01T14:34:00Z,28.1944,-89.1768,11.0,28.2,11111222
Shell,ioos:station:wmo:42873:1,2022-10-01T14:44:00Z,28.1939,-89.1769,11.0,28.2,11111222
Shell,ioos:station:wmo:42873:1,2022-10-01T14:54:00Z,28.1945,-89.1767,11.0,28.2,11111222
Shell,ioos:station:wmo:42873:1,2022-10-01T15:04:00Z,28.1944,-89.1768,11.0,28.2,11111222
Shell,ioos:station:wmo:42873:1,2022-10-01T15:14:00Z,28.1942,-89.1768,11.0,28.2,11111222
Shell,ioos:station:wmo:42873:1,2022-10-01T15:24:00Z,28.1945,-89.1765,11.0,28.1,11111222
Shell,ioos:station:wmo:42873:1,2022-10-01T15:34:00Z,28.1943,-89.1766,11.0,28.1,11111222
Shell,ioos:station:wmo:42873:1,2022-10-01T15:44:00Z,28.1943,-89.1767,11.0,28.2,11111222
Shell,ioos:station:wmo:42873:1,2022-10-01T15:54:00Z,28.1943,-89.1766,11.0,28.1,11111222
Shell,ioos:station:wmo:42873:1,2022-10-01T16:04:00Z,28.1942,-89.1766,11.0,28.1,11111222
Shell,ioos:station:wmo:42873:1,2022-10-01T16:14:00Z,28.1943,-89.1766,11.0,28.1,11111222
Shell,ioos:station:wmo:42873:1,2022-10-01T16:24:00Z,28.1944,-89.1765,11.0,28.1,11111222
Shell,ioos:station:wmo:42873:1,2022-10-01T16:34:00Z,28.1943,-89.1764,11.0,28.1,11111222
Shell,ioos:station:wmo:42873:1,2022-10-01T16:44:00Z,28.1943,-89.1766,11.0,28.1,11111222
Shell,ioos:station:wmo:42873:1,2022-10-01T16:54:00Z,28.1943,-89.1766,11.0,28.1,11111222
Shell,ioos:station:wmo:42873:1,2022-10-01T17:04:00Z,28.1943,-89.1766,11.0,28.1,11111222
Shell,ioos:station:wmo:42873:1,2022-10-01T17:14:00Z,28.1943,-89.1766,11.0,28.1,11111222
Shell,ioos:station:wmo:42873:1,2022-10-01T17:24:00Z,28.1943,-89.1767,11.0,28.1,11111222
Shell,ioos:station:wmo:42873:1,2022-10-01T17:34:00Z,28.1943,-89.1767,11.0,28.1,11111222
Shell,ioos:station:wmo:42873:1,2022-10-01T17:44:00Z,28.1948,-89.1763,11.0,28.1,11111222
Shell,ioos:station:wmo:42873:1,2022-10-01T17:54:00Z,28.1944,-89.1766,11.0,28.1,11111222
Shell,ioos:station:wmo:42873:1,2022-10-01T18:04:00Z,28.1946,-89.1765,11.0,28.1,11111222
Shell,ioos:station:wmo:42873:1,2022-10-01T18:14:00Z,28.1945,-89.1766,11.0,28.1,11111222
Shell,ioos:station:wmo:42873:1,2022-10-01T18:24:00Z,28.1944,-89.1766,11.0,28.1,11111222
Shell,ioos:station:wmo:42873:1,2022-10-01T18:34:00Z,28.1943,-89.1766,11.0,28.0,11111222
Shell,ioos:station:wmo:42873:1,2022-10-01T18:44:00Z,28.1942,-89.1767,11.0,28.0,11111222
Shell,ioos:station:wmo:42873:1,2022-10-01T18:54:00Z,28.1941,-89.1766,11.0,28.0,11111222
Shell,ioos:station:wmo:42873:1,2022-10-01T19:04:00Z,28.1941,-89.1766,11.0,28.0,11111222
Shell,ioos:station:wmo:42873:1,2022-10-01T19:14:00Z,28.1942,-89.1766,11.0,28.0,11111222
Shell,ioos:station:wmo:42873:1,2022-10-01T19:24:00Z,28.1942,-89.1766,11.0,28.0,11111222
Shell,ioos:station:wmo:42873:1,2022-10-01T19:34:00Z,28.1942,-89.1766,11.0,28.0,11111222
Shell,ioos:station:wmo:42873:1,2022-10-01T19:44:00Z,28.1942,-89.1765,11.0,28.0,11111222
Shell,ioos:station:wmo:42873:1,2022-10-01T19:54:00Z,28.1941,-89.1765,11.0,28.0,11111222
Shell,ioos:station:wmo:42873:1,2022-10-01T20:04:00Z,28.1941,-89.1765,11.0,28.0,11111222
Shell,ioos:station:wmo:42873:1,2022-10-01T20:14:00Z,28.1941,-89.1766,11.0,28.0,11111222
Shell,ioos:station:wmo:42873:1,2022-10-01T20:24:00Z,28.1942,-89.1766,11.0,28.0,11111222
Shell,ioos:station:wmo:42873:1,2022-10-01T20:34:00Z,28.1942,-89.1766,11.0,28.0,11111222
Shell,ioos:station:wmo:42873:1,2022-10-01T20:44:00Z,28.1942,-89.1766,11.0,28.0,11111222
Shell,ioos:station:wmo:42873:1,2022-10-01T20:54:00Z,28.1942,-89.1768,11.0,28.0,11111222
Shell,ioos:station:wmo:42873:1,2022-10-01T21:04:00Z,28.1942,-89.1767,11.0,28.0,11111222
Shell,ioos:station:wmo:42873:1,2022-10-01T21:14:00Z,28.1941,-89.1765,11.0,28.0,11111222
Shell,ioos:station:wmo:42873:1,2022-10-01T21:24:00Z,28.1942,-89.1766,11.0,28.0,11111222
Shell,ioos:station:wmo:42873:1,2022-10-01T21:34:00Z,28.1942,-89.1767,11.0,28.0,11111222
Shell,ioos:station:wmo:42873:1,2022-10-01T21:44:00Z,28.1942,-89.1766,11.0,28.0,11111222
Shell,ioos:station:wmo:42873:1,2022-10-01T21:54:00Z,28.1941,-89.1765,11.0,28.0,11111222
Shell,ioos:station:wmo:42873:1,2022-10-01T22:04:00Z,28.1941,-89.1765,11.0,28.0,11111222
Shell,ioos:station:wmo:42873:1,2022-10-01T22:14:00Z,28.1942,-89.1766,11.0,28.0,11111222
Shell,ioos:station:wmo:42873:1,2022-10-01T22:24:00Z,28.1942,-89.1767,11.0,28.0,11111222
Shell,ioos:station:wmo:42873:1,2022-10-01T22:34:00Z,28.1941,-89.1766,11.0,28.0,11111222
Shell,ioos:station:wmo:42873:1,2022-10-01T22:44:00Z,28.1942,-89.1767,11.0,28.0,11111222
Shell,ioos:station:wmo:42873:1,2022-10-01T22:54:00Z,28.1941,-89.1766,11.0,28.0,11111222
Shell,ioos:station:wmo:42873:1,2022-10-01T23:04:00Z,28.1941,-89.1766,11.0,28.0,11111222
Shell,ioos:station:wmo:42873:1,2022-10-01T23:14:00Z,28.1942,-89.1766,11.0,28.0,11111222
Shell,ioos:station:wmo:42873:1,2022-10-01T23:24:00Z,28.1942,-89.1767,11.0,28.0,11111222
Shell,ioos:station:wmo:42873:1,2022-10-01T23:34:00Z,28.1942,-89.1768,11.0,28.0,11111222
Shell,ioos:station:wmo:42873:1,2022-10-01T23:44:00Z,28.1942,-89.1767,11.0,28.0,11111222
Shell,ioos:station:wmo:42873:1,2022-10-01T23:54:00Z,28.1941,-89.1764,11.0,28.0,11111222
Shell,ioos:station:wmo:42873:1,2022-10-02T00:04:00Z,28.1941,-89.1765,11.0,27.9,11111222
Shell,ioos:station:wmo:42873:1,2022-10-02T00:14:00Z,28.1940,-89.1760,11.0,27.9,11111222
Shell,ioos:station:wmo:42873:1,2022-10-02T00:24:00Z,28.1941,-89.1766,11.0,27.9,11111222
Shell,ioos:station:wmo:42873:1,2022-10-02T00:34:00Z,28.1941,-89.1766,11.0,27.9,11111222
Shell,ioos:station:wmo:42873:1,2022-10-02T00:44:00Z,28.1941,-89.1766,11.0,27.9,11111222
Shell,ioos:station:wmo:42873:1,2022-10-02T00:54:00Z,28.1941,-89.1766,11.0,27.9,11111222
Shell,ioos:station:wmo:42873:1,2022-10-02T01:04:00Z,28.1941,-89.1766,11.0,27.9,11111222
Shell,ioos:station:wmo:42873:1,2022-10-02T01:14:00Z,28.1943,-89.1773,11.0,27.9,11111222
Shell,ioos:station:wmo:42873:1,2022-10-02T01:24:00Z,28.1942,-89.1765,11.0,27.9,11111222
Shell,ioos:station:wmo:42873:1,2022-10-02T01:34:00Z,28.1942,-89.1765,11.0,27.9,11111222
Shell,ioos:station:wmo:42873:1,2022-10-02T01:44:00Z,28.1940,-89.1751,11.0,27.9,11111222
Shell,ioos:station:wmo:42873:1,2022-10-02T01:54:00Z,28.1941,-89.1764,11.0,27.9,11111222
Shell,ioos:station:wmo:42873:1,2022-10-02T02:04:00Z,28.1942,-89.1765,11.0,27.9,11111222
Shell,ioos:station:wmo:42873:1,2022-10-02T02:14:00Z,28.1942,-89.1765,11.0,27.9,11111222
Shell,ioos:station:wmo:42873:1,2022-10-02T02:24:00Z,28.1942,-89.1766,11.0,27.9,11111222
Shell,ioos:station:wmo:42873:1,2022-10-02T02:34:00Z,28.1939,-89.1763,11.0,27.9,11111222
Shell,ioos:station:wmo:42873:1,2022-10-02T02:44:00Z,28.1941,-89.1767,11.0,27.9,11111222
Shell,ioos:station:wmo:42873:1,2022-10-02T02:54:00Z,28.1941,-89.1764,11.0,27.9,11111222
Shell,ioos:station:wmo:42873:1,2022-10-02T03:04:00Z,28.1940,-89.1756,11.0,27.9,11111222
Shell,ioos:station:wmo:42873:1,2022-10-02T03:14:00Z,28.1941,-89.1762,11.0,27.9,11111222
Shell,ioos:station:wmo:42873:1,2022-10-02T03:24:00Z,28.1941,-89.1765,11.0,27.9,11111222
Shell,ioos:station:wmo:42873:1,2022-10-02T03:34:00Z,28.1941,-89.1766,11.0,27.9,11111222
Shell,ioos:station:wmo:42873:1,2022-10-02T03:44:00Z,28.1941,-89.1766,11.0,28.0,11111222
Shell,ioos:station:wmo:42873:1,2022-10-02T03:54:00Z,28.1941,-89.1765,11.0,27.9,11111222
Shell,ioos:station:wmo:42873:1,2022-10-02T04:04:00Z,28.1941,-89.1765,11.0,27.9,11111222
Shell,ioos:station:wmo:42873:1,2022-10-02T04:14:00Z,28.1941,-89.1765,11.0,27.9,11111222
Shell,ioos:station:wmo:42873:1,2022-10-02T04:24:00Z,28.1941,-89.1765,11.0,27.9,11111222
Shell,ioos:station:wmo:42873:1,2022-10-02T04:34:00Z,28.1941,-89.1766,11.0,27.9,11111222
Shell,ioos:station:wmo:42873:1,2022-10-02T04:44:00Z,28.1941,-89.1765,11.0,27.9,11111222
Shell,ioos:station:wmo:42873:1,2022-10-02T04:54:00Z,28.1942,-89.1765,11.0,27.9,11111222
Shell,ioos:station:wmo:42873:1,2022-10-02T05:04:00Z,28.1945,-89.1764,11.0,27.9,11111222
Shell,ioos:station:wmo:42873:1,2022-10-02T05:14:00Z,28.1943,-89.1768,11.0,27.9,11111222
Shell,ioos:station:wmo:42873:1,2022-10-02T05:24:00Z,28.1942,-89.1767,11.0,27.9,11111222
Shell,ioos:station:wmo:42873:1,2022-10-02T05:34:00Z,28.1942,-89.1765,11.0,27.9,11111222
Shell,ioos:station:wmo:42873:1,2022-10-02T05:44:00Z,28.1942,-89.1763,11.0,27.9,11111222
Shell,ioos:station:wmo:42873:1,2022-10-02T05:54:00Z,28.1941,-89.1764,11.0,27.9,11111222
Shell,ioos:station:wmo:42873:1,2022-10-02T06:04:00Z,28.1940,-89.1763,11.0,27.9,11111222
Shell,ioos:station:wmo:42873:1,2022-10-02T06:14:00Z,28.1941,-89.1763,11.0,27.9,11111222
Shell,ioos:station:wmo:42873:1,2022-10-02T06:24:00Z,28.1941,-89.1762,11.0,27.9,11111222
Shell,ioos:station:wmo:42873:1,2022-10-02T06:34:00Z,28.1941,-89.1765,11.0,27.9,11111222
Shell,ioos:station:wmo:42873:1,2022-10-02T06:44:00Z,28.1941,-89.1766,11.0,27.9,11111222
Shell,ioos:station:wmo:42873:1,2022-10-02T06:54:00Z,28.1941,-89.1763,11.0,27.9,11111222
Shell,ioos:station:wmo:42873:1,2022-10-02T07:04:00Z,28.1941,-89.1765,11.0,27.9,11111222
Shell,ioos:station:wmo:42873:1,2022-10-02T07:14:00Z,28.1941,-89.1766,11.0,27.9,11111222
Shell,ioos:station:wmo:42873:1,2022-10-02T07:24:00Z,28.1941,-89.1765,11.0,27.9,11111222
Shell,ioos:station:wmo:42873:1,2022-10-02T07:34:00Z,28.1940,-89.1764,11.0,27.9,11111222
Shell,ioos:station:wmo:42873:1,2022-10-02T07:44:00Z,28.1941,-89.1766,11.0,27.9,11111222
Shell,ioos:station:wmo:42873:1,2022-10-02T07:54:00Z,28.1941,-89.1766,11.0,27.9,11111222
Shell,ioos:station:wmo:42873:1,2022-10-02T08:04:00Z,28.1942,-89.1766,11.0,27.9,11111222
Shell,ioos:station:wmo:42873:1,2022-10-02T08:14:00Z,28.1943,-89.1770,11.0,27.9,11111222
Shell,ioos:station:wmo:42873:1,2022-10-02T08:24:00Z,28.1941,-89.1763,11.0,27.9,11111222
Shell,ioos:station:wmo:42873:1,2022-10-02T08:34:00Z,28.1942,-89.1766,11.0,27.9,11111222
Shell,ioos:station:wmo:42873:1,2022-10-02T08:44:00Z,28.1943,-89.1770,11.0,27.9,11111222
Shell,ioos:station:wmo:42873:1,2022-10-02T08:54:00Z,28.1942,-89.1765,11.0,27.9,11111222
Shell,ioos:station:wmo:42873:1,2022-10-02T09:04:00Z,28.1941,-89.1767,11.0,27.8,11111222
Shell,ioos:station:wmo:42873:1,2022-10-02T09:14:00Z,28.1941,-89.1766,11.0,27.9,11111222
Shell,ioos:station:wmo:42873:1,2022-10-02T09:24:00Z,28.1941,-89.1765,11.0,27.8,11111222
Shell,ioos:station:wmo:42873:1,2022-10-02T09:34:00Z,28.1938,-89.1761,11.0,27.8,11111222
Shell,ioos:station:wmo:42873:1,2022-10-02T09:44:00Z,28.1931,-89.1750,11.0,27.8,11111222
Shell,ioos:station:wmo:42873:1,2022-10-02T09:54:00Z,28.1944,-89.1768,11.0,27.8,11111222
Shell,ioos:station:wmo:42873:1,2022-10-02T10:04:00Z,28.1946,-89.1770,11.0,27.8,11111222
Shell,ioos:station:wmo:42873:1,2022-10-02T10:14:00Z,28.1942,-89.1766,11.0,27.9,11111222
Shell,ioos:station:wmo:42873:1,2022-10-02T10:24:00Z,28.1942,-89.1766,11.0,27.9,11111222
Shell,ioos:station:wmo:42873:1,2022-10-02T10:34:00Z,28.1941,-89.1765,11.0,27.9,11111222
Shell,ioos:station:wmo:42873:1,2022-10-02T10:44:00Z,28.1941,-89.1766,11.0,27.9,11111222
Shell,ioos:station:wmo:42873:1,2022-10-02T10:54:00Z,28.1942,-89.1764,11.0,27.9,11111222
Shell,ioos:station:wmo:42873:1,2022-10-02T11:04:00Z,28.1941,-89.1764,11.0,27.8,11111222
Shell,ioos:station:wmo:42873:1,2022-10-02T11:14:00Z,28.1941,-89.1766,11.0,27.8,11111222
Shell,ioos:station:wmo:42873:1,2022-10-02T11:24:00Z,28.1942,-89.1766,11.0,27.8,11111222
Shell,ioos:station:wmo:42873:1,2022-10-02T11:34:00Z,28.1942,-89.1765,11.0,27.8,11111222
Shell,ioos:station:wmo:42873:1,2022-10-02T11:44:00Z,28.1941,-89.1767,11.0,27.8,11111222
Shell,ioos:station:wmo:42873:1,2022-10-02T11:54:00Z,28.1941,-89.1766,11.0,27.8,11111222
Shell,ioos:station:wmo:42873:1,2022-10-02T12:04:00Z,28.1941,-89.1766,11.0,27.8,11111222
Shell,ioos:station:wmo:42873:1,2022-10-02T12:14:00Z,28.1942,-89.1768,11.0,27.8,11111222
Shell,ioos:station:wmo:42873:1,2022-10-02T12:24:00Z,28.1941,-89.1764,11.0,27.9,11111222
Shell,ioos:station:wmo:42873:1,2022-10-02T12:34:00Z,28.1941,-89.1765,11.0,27.8,11111222
Shell,ioos:station:wmo:42873:1,2022-10-02T12:44:00Z,28.1941,-89.1766,11.0,27.8,11111222
Shell,ioos:station:wmo:42873:1,2022-10-02T12:54:00Z,28.1942,-89.1766,11.0,27.8,11111222
Shell,ioos:station:wmo:42873:1,2022-10-02T13:04:00Z,28.1941,-89.1765,11.0,27.8,11111222
Shell,ioos:station:wmo:42873:1,2022-10-02T13:14:00Z,28.1941,-89.1766,11.0,27.8,11111222
Shell,ioos:station:wmo:42873:1,2022-10-02T13:24:00Z,28.1941,-89.1765,11.0,27.8,11111222
Shell,ioos:station:wmo:42873:1,2022-10-02T13:34:00Z,28.1941,-89.1765,11.0,27.8,11111222
Shell,ioos:station:wmo:42873:1,2022-10-02T13:44:00Z,28.1942,-89.1764,11.0,27.8,11111222
Shell,ioos:station:wmo:42873:1,2022-10-02T13:54:00Z,28.1942,-89.1766,11.0,27.8,11111222
Shell,ioos:station:wmo:42873:1,2022-10-02T14:04:00Z,28.1942,-89.1763,11.0,27.8,11111222
Shell,ioos:station:wmo:42873:1,2022-10-02T14:14:00Z,28.1942,-89.1766,11.0,27.8,11111222
Shell,ioos:station:wmo:42873:1,2022-10-02T14:24:00Z,28.1941,-89.1765,11.0,27.8,11111222
Shell,ioos:station:wmo:42873:1,2022-10-02T14:34:00Z,28.1941,-89.1765,11.0,27.8,11111222
Shell,ioos:station:wmo:42873:1,2022-10-02T14:44:00Z,28.1941,-89.1765,11.0,27.8,11111222
Shell,ioos:station:wmo:42873:1,2022-10-02T14:54:00Z,28.1941,-89.1766,11.0,27.8,11111222
Shell,ioos:station:wmo:42873:1,2022-10-02T15:04:00Z,28.1942,-89.1767,11.0,27.8,11111222
Shell,ioos:station:wmo:42873:1,2022-10-02T15:14:00Z,28.1942,-89.1768,11.0,27.8,11111222
Shell,ioos:station:wmo:42873:1,2022-10-02T15:24:00Z,28.1941,-89.1763,11.0,27.8,11111222
Shell,ioos:station:wmo:42873:1,2022-10-02T15:34:00Z,28.1941,-89.1767,11.0,27.8,11111222
Shell,ioos:station:wmo:42873:1,2022-10-02T15:44:00Z,28.1941,-89.1769,11.0,27.9,11111222
Shell,ioos:station:wmo:42873:1,2022-10-02T15:54:00Z,28.1942,-89.1775,11.0,27.9,11111222
Shell,ioos:station:wmo:42873:1,2022-10-02T16:04:00Z,28.1942,-89.1767,11.0,27.9,11111222
Shell,ioos:station:wmo:42873:1,2022-10-02T16:14:00Z,28.1941,-89.1766,11.0,27.9,11111222
Shell,ioos:station:wmo:42873:1,2022-10-02T16:24:00Z,28.1942,-89.1764,11.0,27.9,11111222
Shell,ioos:station:wmo:42873:1,2022-10-02T16:34:00Z,28.1941,-89.1766,11.0,27.9,11111222
Shell,ioos:station:wmo:42873:1,2022-10-02T16:44:00Z,28.1941,-89.1766,11.0,27.9,11111222
Shell,ioos:station:wmo:42873:1,2022-10-02T16:54:00Z,28.1941,-89.1766,11.0,27.9,11111222
Shell,ioos:station:wmo:42873:1,2022-10-02T17:04:00Z,28.1942,-89.1766,11.0,27.9,11111222
Shell,ioos:station:wmo:42873:1,2022-10-02T17:14:00Z,28.1942,-89.1766,11.0,28.0,11111222
Shell,ioos:station:wmo:42873:1,2022-10-02T17:24:00Z,28.1941,-89.1765,11.0,28.0,11111222
Shell,ioos:station:wmo:42873:1,2022-10-02T17:34:00Z,28.1942,-89.1764,11.0,28.0,11111222
Shell,ioos:station:wmo:42873:1,2022-10-02T17:44:00Z,28.1945,-89.1762,11.0,28.0,11111222
Shell,ioos:station:wmo:42873:1,2022-10-02T17:54:00Z,28.1942,-89.1765,11.0,28.1,11111222
Shell,ioos:station:wmo:42873:1,2022-10-02T18:04:00Z,28.1942,-89.1764,11.0,28.1,11111222
Shell,ioos:station:wmo:42873:1,2022-10-02T18:14:00Z,28.1941,-89.1764,11.0,28.1,11111222
Shell,ioos:station:wmo:42873:1,2022-10-02T18:24:00Z,28.1941,-89.1760,11.0,28.1,11111222
Shell,ioos:station:wmo:42873:1,2022-10-02T18:34:00Z,28.1942,-89.1765,11.0,28.1,11111222
Shell,ioos:station:wmo:42873:1,2022-10-02T18:44:00Z,28.1942,-89.1764,11.0,28.1,11111222
Shell,ioos:station:wmo:42873:1,2022-10-02T18:54:00Z,28.1942,-89.1767,11.0,28.1,11111222
Shell,ioos:station:wmo:42873:1,2022-10-02T19:04:00Z,28.1941,-89.1766,11.0,28.2,11111222
Shell,ioos:station:wmo:42873:1,2022-10-02T19:14:00Z,28.1941,-89.1766,11.0,28.1,11111222
Shell,ioos:station:wmo:42873:1,2022-10-02T19:24:00Z,28.1941,-89.1766,11.0,28.2,11111222
Shell,ioos:station:wmo:42873:1,2022-10-02T19:34:00Z,28.1942,-89.1766,11.0,28.2,11111222
Shell,ioos:station:wmo:42873:1,2022-10-02T19:44:00Z,28.1941,-89.1765,11.0,28.2,11111222
Shell,ioos:station:wmo:42873:1,2022-10-02T19:54:00Z,28.1943,-89.1759,11.0,28.2,11111222
Shell,ioos:station:wmo:42873:1,2022-10-02T20:04:00Z,28.1941,-89.1765,11.0,28.2,11111222
Shell,ioos:station:wmo:42873:1,2022-10-02T20:14:00Z,28.1942,-89.1766,11.0,28.2,11111222
Shell,ioos:station:wmo:42873:1,2022-10-02T20:24:00Z,28.1942,-89.1765,11.0,28.2,11111222
Shell,ioos:station:wmo:42873:1,2022-10-02T20:34:00Z,28.1942,-89.1765,11.0,28.2,11111222